VOZ87E YWLM-YSCB

Flight info

Callsign VOZ87E
Flight time 0h 47m
Altitude 36000
Route WLM DCT LIMLO H536 OMLAV Q15 WOL H65 CB
Aircraft E190/M-SDE3GILORVW/S

Departure

Time 2026-04-25 09:37
Airport Newcastle Airport (YWLM)

Arrival

Time 2026-04-25 10:24
Airport Canberra Airport (YSCB)
Time Latitude Longitude Altitude Speed Heading
2026-04-25 09:09 -32.80408 151.84089 26 ft 0 kts 270°
2026-04-25 09:30 -32.80406 151.84084 26 ft 1 kts 289°
2026-04-25 09:30 -32.80397 151.84073 30 ft 3 kts 310°
2026-04-25 09:30 -32.80368 151.84057 26 ft 7 kts 349°
2026-04-25 09:30 -32.80309 151.84018 27 ft 13 kts 315°
2026-04-25 09:31 -32.80237 151.83922 27 ft 18 kts 311°
2026-04-25 09:31 -32.80127 151.83821 28 ft 22 kts 352°
2026-04-25 09:31 -32.79959 151.83847 28 ft 26 kts
2026-04-25 09:31 -32.79799 151.83954 29 ft 29 kts 51°
2026-04-25 09:32 -32.79665 151.83888 29 ft 26 kts 302°
2026-04-25 09:32 -32.79538 151.83700 30 ft 32 kts 309°
2026-04-25 09:32 -32.79379 151.83477 31 ft 38 kts 309°
2026-04-25 09:32 -32.79209 151.83240 32 ft 38 kts 310°
2026-04-25 09:33 -32.79039 151.83001 34 ft 38 kts 313°
2026-04-25 09:33 -32.78866 151.82764 34 ft 36 kts 310°
2026-04-25 09:33 -32.78789 151.82638 35 ft 14 kts 286°
2026-04-25 09:33 -32.78795 151.82596 35 ft 0 kts 243°
2026-04-25 09:34 -32.78797 151.82592 35 ft 2 kts 241°
2026-04-25 09:35 -32.78816 151.82567 34 ft 6 kts 223°
2026-04-25 09:35 -32.78861 151.82520 33 ft 10 kts 210°
2026-04-25 09:35 -32.78924 151.82560 33 ft 12 kts 129°
2026-04-25 09:35 -32.78983 151.82643 33 ft 14 kts 131°
2026-04-25 09:36 -32.79055 151.82741 32 ft 17 kts 130°
2026-04-25 09:36 -32.79137 151.82854 34 ft 19 kts 130°
2026-04-25 09:36 -32.79281 151.83056 32 ft 63 kts 130°
2026-04-25 09:36 -32.79735 151.83694 30 ft 139 kts 129°
2026-04-25 09:37 -32.80481 151.84723 428 ft 179 kts 129°
2026-04-25 09:37 -32.81319 151.85928 1088 ft 215 kts 125°
2026-04-25 09:37 -32.82379 151.87488 1223 ft 255 kts 126°
2026-04-25 09:37 -32.83449 151.89021 1516 ft 221 kts 128°
2026-04-25 09:38 -32.84432 151.90252 1920 ft 195 kts 130°
2026-04-25 09:38 -32.85327 151.91465 1832 ft 190 kts 129°
2026-04-25 09:38 -32.86451 151.92194 2265 ft 198 kts 171°
2026-04-25 09:38 -32.87862 151.92056 2880 ft 210 kts 187°
2026-04-25 09:39 -32.89373 151.91632 3420 ft 240 kts 193°
2026-04-25 09:39 -32.91072 151.91041 3925 ft 266 kts 195°
2026-04-25 09:39 -32.92861 151.90399 4435 ft 271 kts 194°
2026-04-25 09:40 -32.96464 151.89120 5381 ft 271 kts 195°
2026-04-25 09:40 -32.98276 151.88472 5817 ft 274 kts 195°
2026-04-25 09:40 -33.00101 151.87824 6270 ft 275 kts 195°
2026-04-25 09:40 -33.01951 151.87190 6721 ft 277 kts 192°
2026-04-25 09:41 -33.03848 151.86759 7152 ft 277 kts 187°
2026-04-25 09:41 -33.05764 151.86447 7592 ft 278 kts 185°
2026-04-25 09:41 -33.07703 151.86253 7888 ft 281 kts 179°
2026-04-25 09:41 -33.09661 151.86236 7960 ft 281 kts 178°
2026-04-25 09:42 -33.11611 151.86238 7991 ft 280 kts 178°
2026-04-25 09:42 -33.13557 151.86247 7995 ft 280 kts 177°
2026-04-25 09:42 -33.15495 151.86257 8121 ft 278 kts 178°
2026-04-25 09:42 -33.17439 151.86267 8359 ft 280 kts 178°
2026-04-25 09:43 -33.19391 151.86283 8724 ft 280 kts 177°
2026-04-25 09:43 -33.21353 151.86335 9105 ft 283 kts 174°
2026-04-25 09:43 -33.23311 151.86560 9487 ft 284 kts 172°
2026-04-25 09:43 -33.25272 151.86819 9870 ft 285 kts 171°
2026-04-25 09:44 -33.27236 151.87092 10286 ft 296 kts 171°
2026-04-25 09:44 -33.29352 151.87386 10691 ft 312 kts 171°
2026-04-25 09:44 -33.31545 151.87687 11107 ft 313 kts 171°
2026-04-25 09:44 -33.33704 151.87987 11509 ft 313 kts 171°
2026-04-25 09:45 -33.35877 151.88288 11911 ft 315 kts 172°
2026-04-25 09:45 -33.38069 151.88172 12324 ft 320 kts 192°
2026-04-25 09:45 -33.40190 151.87312 12760 ft 324 kts 200°
2026-04-25 09:45 -33.42257 151.86212 13206 ft 326 kts 204°
2026-04-25 09:46 -33.44296 151.84992 13658 ft 329 kts 205°
2026-04-25 09:46 -33.46325 151.83721 14117 ft 331 kts 206°
2026-04-25 09:46 -33.48362 151.82418 14536 ft 332 kts 206°
2026-04-25 09:46 -33.50354 151.80988 14951 ft 336 kts 211°
2026-04-25 09:47 -33.52314 151.79460 15375 ft 338 kts 211°
2026-04-25 09:47 -33.54289 151.77908 15808 ft 341 kts 211°
2026-04-25 09:47 -33.56272 151.76337 16255 ft 343 kts 211°
2026-04-25 09:47 -33.58267 151.74755 16714 ft 345 kts 211°
2026-04-25 09:48 -33.60246 151.73187 17168 ft 347 kts 211°
2026-04-25 09:48 -33.62298 151.71561 17650 ft 350 kts 212°
2026-04-25 09:48 -33.64337 151.69942 18138 ft 353 kts 211°
2026-04-25 09:48 -33.66368 151.68330 18627 ft 356 kts 211°
2026-04-25 09:49 -33.68469 151.66661 19079 ft 358 kts 211°
2026-04-25 09:49 -33.70525 151.65027 19520 ft 361 kts 211°
2026-04-25 09:49 -33.72620 151.63361 19973 ft 363 kts 211°
2026-04-25 09:49 -33.74729 151.61683 20444 ft 365 kts 211°
2026-04-25 09:50 -33.76848 151.59996 20910 ft 367 kts 211°
2026-04-25 09:50 -33.78993 151.58288 21404 ft 370 kts 211°
2026-04-25 09:50 -33.81148 151.56571 21899 ft 373 kts 211°
2026-04-25 09:50 -33.83317 151.54841 22463 ft 374 kts 211°
2026-04-25 09:51 -33.85333 151.53231 23222 ft 371 kts 211°
2026-04-25 09:51 -33.87468 151.51527 24025 ft 367 kts 211°
2026-04-25 09:51 -33.89583 151.49838 24700 ft 363 kts 211°
2026-04-25 09:51 -33.91679 151.48163 25394 ft 359 kts 211°
2026-04-25 09:52 -33.93754 151.46503 26092 ft 356 kts 211°
2026-04-25 09:52 -33.95803 151.44863 26800 ft 352 kts 211°
2026-04-25 09:52 -33.97830 151.43240 27516 ft 348 kts 211°
2026-04-25 09:52 -33.99828 151.41639 28242 ft 342 kts 211°
2026-04-25 09:53 -34.01796 151.40062 28967 ft 337 kts 211°
2026-04-25 09:53 -34.03726 151.38512 29699 ft 331 kts 211°
2026-04-25 09:53 -34.05628 151.36985 30432 ft 325 kts 211°
2026-04-25 09:53 -34.07490 151.35490 31060 ft 319 kts 211°
2026-04-25 09:54 -34.09320 151.34021 31663 ft 312 kts 211°
2026-04-25 09:54 -34.11103 151.32588 32269 ft 305 kts 211°
2026-04-25 09:54 -34.12844 151.31188 32869 ft 296 kts 211°
2026-04-25 09:54 -34.14529 151.29831 33446 ft 286 kts 211°
2026-04-25 09:55 -34.16156 151.28521 34004 ft 276 kts 211°
2026-04-25 09:55 -34.17719 151.27261 34499 ft 264 kts 211°
2026-04-25 09:55 -34.19220 151.26052 34813 ft 257 kts 211°
2026-04-25 09:55 -34.20695 151.24865 34985 ft 254 kts 211°
2026-04-25 09:56 -34.22159 151.23684 35120 ft 251 kts 211°
2026-04-25 09:56 -34.23600 151.22521 35228 ft 248 kts 211°
2026-04-25 09:56 -34.25020 151.21374 35307 ft 245 kts 211°
2026-04-25 09:56 -34.26437 151.20231 35345 ft 244 kts 211°
2026-04-25 09:57 -34.27846 151.19093 35368 ft 242 kts 211°
2026-04-25 09:57 -34.29245 151.17961 35379 ft 242 kts 211°
2026-04-25 09:57 -34.30642 151.16832 35372 ft 241 kts 211°
2026-04-25 09:57 -34.32035 151.15705 35348 ft 241 kts 211°
2026-04-25 09:58 -34.33415 151.14551 35309 ft 243 kts 216°
2026-04-25 09:58 -34.34678 151.13179 35253 ft 246 kts 223°
2026-04-25 09:58 -34.35861 151.11679 35266 ft 247 kts 224°
2026-04-25 09:58 -34.36968 151.10079 35292 ft 249 kts 230°
2026-04-25 09:59 -34.38003 151.08404 35331 ft 249 kts 230°
2026-04-25 09:59 -34.39039 151.06716 35379 ft 250 kts 230°
2026-04-25 09:59 -34.40070 151.05024 35428 ft 250 kts 230°
2026-04-25 09:59 -34.41100 151.03330 35478 ft 250 kts 230°
2026-04-25 10:00 -34.42130 151.01636 35532 ft 250 kts 230°
2026-04-25 10:00 -34.43163 150.99937 35569 ft 252 kts 230°
2026-04-25 10:00 -34.44213 150.98213 35433 ft 262 kts 230°
2026-04-25 10:00 -34.45321 150.96388 35406 ft 270 kts 231°
2026-04-25 10:01 -34.46434 150.94553 35408 ft 277 kts 231°
2026-04-25 10:01 -34.47593 150.92643 35422 ft 286 kts 231°
2026-04-25 10:01 -34.48793 150.90665 35428 ft 296 kts 231°
2026-04-25 10:01 -34.50036 150.88616 35435 ft 307 kts 231°
2026-04-25 10:02 -34.51322 150.86493 35435 ft 319 kts 231°
2026-04-25 10:02 -34.52217 150.85014 35431 ft 327 kts 231°
2026-04-25 10:02 -34.53590 150.82746 35429 ft 340 kts 231°
2026-04-25 10:02 -34.55491 150.79604 35436 ft 356 kts 232°
2026-04-25 10:03 -34.56979 150.77139 35473 ft 367 kts 232°
2026-04-25 10:03 -34.58513 150.74595 35412 ft 381 kts 231°
2026-04-25 10:03 -34.60121 150.71941 35201 ft 400 kts 232°
2026-04-25 10:03 -34.61803 150.69149 34953 ft 419 kts 232°
2026-04-25 10:04 -34.63561 150.66229 34702 ft 437 kts 232°
2026-04-25 10:04 -34.65390 150.63190 34433 ft 454 kts 232°
2026-04-25 10:04 -34.66665 150.61071 34215 ft 462 kts 232°
2026-04-25 10:04 -34.68564 150.57909 33857 ft 466 kts 232°
2026-04-25 10:05 -34.71094 150.53697 33376 ft 465 kts 232°
2026-04-25 10:05 -34.72383 150.51547 33135 ft 465 kts 232°
2026-04-25 10:05 -34.74290 150.48367 32775 ft 466 kts 232°
2026-04-25 10:05 -34.76198 150.45182 32411 ft 466 kts 232°
2026-04-25 10:06 -34.78073 150.42050 32210 ft 463 kts 232°
2026-04-25 10:06 -34.79951 150.38906 32081 ft 459 kts 232°
2026-04-25 10:06 -34.81813 150.35792 31784 ft 450 kts 232°
2026-04-25 10:06 -34.83636 150.32736 31496 ft 443 kts 232°
2026-04-25 10:07 -34.85436 150.29718 31232 ft 443 kts 232°
2026-04-25 10:07 -34.87271 150.26642 30982 ft 452 kts 232°
2026-04-25 10:07 -34.89132 150.23513 30649 ft 462 kts 232°
2026-04-25 10:07 -34.91033 150.20317 30271 ft 468 kts 232°
2026-04-25 10:08 -34.92904 150.17168 29833 ft 445 kts 233°
2026-04-25 10:08 -34.94658 150.14211 29343 ft 418 kts 232°
2026-04-25 10:08 -34.96326 150.11403 28670 ft 403 kts 233°
2026-04-25 10:08 -34.97962 150.08646 27998 ft 401 kts 232°
2026-04-25 10:09 -34.99793 150.06076 27361 ft 400 kts 222°
2026-04-25 10:09 -35.01958 150.03979 26747 ft 396 kts 214°
2026-04-25 10:09 -35.04082 150.01873 26072 ft 394 kts 224°
2026-04-25 10:09 -35.05850 149.99319 25411 ft 392 kts 234°
2026-04-25 10:10 -35.07359 149.96564 24774 ft 389 kts 237°
2026-04-25 10:10 -35.08760 149.93751 24151 ft 387 kts 238°
2026-04-25 10:10 -35.10177 149.90982 23457 ft 383 kts 236°
2026-04-25 10:10 -35.11669 149.88301 22730 ft 379 kts 234°
2026-04-25 10:11 -35.13359 149.85866 22044 ft 375 kts 227°
2026-04-25 10:11 -35.15122 149.83523 21212 ft 373 kts 227°
2026-04-25 10:11 -35.16887 149.81237 20334 ft 368 kts 226°
2026-04-25 10:11 -35.18633 149.78978 19393 ft 363 kts 226°
2026-04-25 10:12 -35.20359 149.76748 18432 ft 359 kts 227°
2026-04-25 10:12 -35.22061 149.74544 17416 ft 354 kts 227°
2026-04-25 10:12 -35.25394 149.70226 15512 ft 344 kts 227°
2026-04-25 10:13 -35.27022 149.68116 14622 ft 338 kts 227°
2026-04-25 10:13 -35.28624 149.66037 13712 ft 333 kts 227°
2026-04-25 10:13 -35.30201 149.63986 12782 ft 329 kts 227°
2026-04-25 10:13 -35.31760 149.61962 11891 ft 324 kts 227°
2026-04-25 10:14 -35.33279 149.59985 11030 ft 312 kts 227°
2026-04-25 10:14 -35.34740 149.58084 10221 ft 301 kts 227°
2026-04-25 10:14 -35.36156 149.56243 9368 ft 291 kts 227°
2026-04-25 10:14 -35.37525 149.54460 8572 ft 284 kts 227°
2026-04-25 10:15 -35.38871 149.52706 7810 ft 282 kts 227°
2026-04-25 10:15 -35.40210 149.50958 7076 ft 281 kts 227°
2026-04-25 10:15 -35.41543 149.49220 6325 ft 278 kts 227°
2026-04-25 10:15 -35.42839 149.47529 5577 ft 273 kts 227°
2026-04-25 10:16 -35.44139 149.45832 5207 ft 268 kts 227°
2026-04-25 10:16 -35.45422 149.44155 5102 ft 272 kts 227°
2026-04-25 10:16 -35.46717 149.42463 5050 ft 272 kts 227°
2026-04-25 10:16 -35.48009 149.40772 5027 ft 271 kts 227°
2026-04-25 10:17 -35.49285 149.39103 5019 ft 271 kts 227°
2026-04-25 10:17 -35.50576 149.37412 5011 ft 271 kts 227°
2026-04-25 10:17 -35.51868 149.35721 5016 ft 272 kts 227°
2026-04-25 10:17 -35.53154 149.34022 5025 ft 271 kts 230°
2026-04-25 10:18 -35.54185 149.32097 5005 ft 270 kts 243°
2026-04-25 10:18 -35.54936 149.29980 5019 ft 270 kts 250°
2026-04-25 10:18 -35.55533 149.27793 5021 ft 270 kts 255°
2026-04-25 10:18 -35.55886 149.25535 5018 ft 270 kts 262°
2026-04-25 10:19 -35.55916 149.23262 5006 ft 268 kts 284°
2026-04-25 10:19 -35.55171 149.21183 5029 ft 267 kts 307°
2026-04-25 10:19 -35.53757 149.19747 5021 ft 265 kts 336°
2026-04-25 10:19 -35.52045 149.19355 5009 ft 245 kts
2026-04-25 10:20 -35.50353 149.19487 5002 ft 244 kts
2026-04-25 10:20 -35.48654 149.19454 4965 ft 244 kts 358°
2026-04-25 10:20 -35.46978 149.19422 4871 ft 232 kts
2026-04-25 10:20 -35.45410 149.19454 4522 ft 220 kts
2026-04-25 10:21 -35.43923 149.19445 4432 ft 203 kts 359°
2026-04-25 10:21 -35.42606 149.19442 4282 ft 182 kts
2026-04-25 10:21 -35.41361 149.19445 3927 ft 175 kts 360°
2026-04-25 10:21 -35.40167 149.19444 3639 ft 169 kts 360°
2026-04-25 10:22 -35.38987 149.19444 3397 ft 170 kts
2026-04-25 10:22 -35.37811 149.19444 3232 ft 166 kts 360°
2026-04-25 10:22 -35.36752 149.19444 3003 ft 142 kts
2026-04-25 10:22 -35.35803 149.19444 2762 ft 131 kts
2026-04-25 10:23 -35.34904 149.19444 2583 ft 128 kts
2026-04-25 10:23 -35.34007 149.19444 2427 ft 130 kts
2026-04-25 10:23 -35.33105 149.19445 2245 ft 130 kts
2026-04-25 10:23 -35.32217 149.19451 2033 ft 129 kts
2026-04-25 10:24 -35.31333 149.19444 1906 ft 127 kts 360°
2026-04-25 10:24 -35.30537 149.19447 1884 ft 97 kts
2026-04-25 10:24 -35.30192 149.19408 1876 ft 19 kts 309°
2026-04-25 10:24 -35.30155 149.19313 1877 ft 0 kts 290°
2026-04-25 10:27 -35.30154 149.19310 1877 ft 3 kts 289°
2026-04-25 10:28 -35.30155 149.19258 1873 ft 9 kts 252°
2026-04-25 10:28 -35.30210 149.19186 1877 ft 14 kts 220°
2026-04-25 10:28 -35.30300 149.19096 1871 ft 11 kts 219°
2026-04-25 10:28 -35.30376 149.19017 1871 ft 12 kts 219°
2026-04-25 10:29 -35.30462 149.19000 1876 ft 14 kts 173°
2026-04-25 10:29 -35.30530 149.18976 1873 ft 9 kts 220°
2026-04-25 10:29 -35.30562 149.18943 1873 ft 0 kts 220°